Regional Weather Roundup
Issued by NWS

Home | Current Version | Previous Version | Graphics & Text | Print | Product List | Glossary On
Versions: 1 2 3 4 5 6 7 8 9 10 11 12 13 14 15 16 17 18 19 20 21 22 23 24 25 26 27 28 29 30 31 32 33 34 35 36 37 38 39 40 41 42 43 44 45 46 47 48 49 50
000
ASUS43 KLMK 011310
RWRKY
KENTUCKY REGIONAL WEATHER ROUNDUP
NATIONAL WEATHER SERVICE LOUISVILLE KY
900 AM EDT TUE SEP 01 2015

NOTE "FAIR" INDICATES FEW OR NO CLOUDS BELOW 12,000 FEET
WITH NO SIGNIFICANT WEATHER AND/OR OBSTRUCTIONS TO VISIBILITY.

KYZ001>023-026-027-061>063-070>075-011400-
WESTERN AND SOUTH CENTRAL KENTUCKY

CITY           SKY/WX    TMP DP  RH WIND       PRES   REMARKS
PADUCAH        SUNNY     71  67  87 CALM      30.12S FOG
HENDERSON      SUNNY     72  66  83 CALM      30.12S
OWENSBORO      SUNNY     74  69  84 S5        30.14F
HOPKINSVILLE   SUNNY     70  67  90 E1        30.14S
BOWLING GREEN  PTSUNNY   69  67  93 CALM      30.16S FOG
GLASGOW        MOSUNNY   70  70 100 CALM      30.16S FOG
$$

KYZ024-025-028>034-038-045-046-053-011400-
NORTH CENTRAL KENTUCKY

CITY           SKY/WX    TMP DP  RH WIND       PRES   REMARKS
LOUISVILLE/SDF MOSUNNY   73  66  78 CALM      30.15S
LOUISVILLE/LOU SUNNY     73  67  81 CALM      30.16S
FORT KNOX      MOSUNNY   70  69  94 CALM      30.15S
$$

KYZ035>037-039>044-047>052-055>060-089>105-011400-
NORTHEAST KENTUCKY

CITY           SKY/WX    TMP DP  RH WIND       PRES   REMARKS
LEXINGTON      SUNNY     71  66  84 CALM      30.18R
COVINGTON      SUNNY     73  68  84 CALM      30.16S
FRANKFORT      SUNNY     71  65  81 CALM      30.16S
$$

KYZ054-064>069-076>088-106>120-011400-
SOUTHEAST KENTUCKY

CITY           SKY/WX    TMP DP  RH WIND       PRES   REMARKS
JACKSON        SUNNY     73  66  78 CALM      30.20R
LONDON         SUNNY     71  64  78 CALM      30.19R
SOMERSET       SUNNY     68  66  94 CALM      30.20R
MIDDLESBORO    CLOUDY    65  65 100 CALM      30.21S FOG
MONTICELLO     MOSUNNY   72  70  94 CALM      30.20S FOG
$$



USA.gov is the U.S. government's official web portal to all federal, state and local government web resources and services.